Location: Diebersbach
(48.5163°N, 8.0558°E)
Time: 23:54:40
(UTC+00:00)

FENGYUN 1C DEB - Pass Details

Date: 30 January 2022
Orbit: 690 x 984 km, 98.6° (Epoch: 23 May)

Event Time Altitude Azimuth Distance (km) Brightness Sun altitude
Rises 17:06:53 0° 155° (SSE) 3,638 ? -7.6°
Reaches altitude 10° 17:09:19 10° 153° (SSE) 2,714 ? -7.9°
Maximum altitude 17:15:26 69° 71° (ENE) 1,051 ? -8.9°
Drops below altitude 10° 17:21:36 10° 350° (N) 2,736 ? -9.9°
Sets 17:24:04 0° 348° (NNW) 3,669 ? -10.3°
